Flag for Germany Weather past 2 weeks in Oldenburg, Lower Saxony, Germany

Now
36 °F

Sunny.


Feels Like: 31 °F
Forecast: 28 / 34 °F
Wind: 6 mph from Southwest

Location: Bremen Airport

Current Time: Dec 26, 2014 at 2:39:55 PM

Latest Report: Dec 26, 2014 at 2:20 PM


Visibility: 10 mi

Pressure: 30.33 "Hg

Humidity: 75%

Dew point: 28 °F

Location of OldenburgLocation

Historic Weather in Oldenburg — Graph

°F

Oldenburg temperature yesterday

Maximum temperature yesterday: 45 °F (at 1:20 PM)
Minimum temperature yesterday: 36 °F (at 9:50 PM)
Average temperature yesterday: 40 °F

Past Weeks' High & Low Weather Summary

 TemperatureHumidityPressure
High54 °F (Dec 18, 3:50 PM)100% (Dec 12, 4:50 AM)30.36 "Hg (Dec 12, 4:50 AM)
Low25 °F (Dec 26, 7:50 AM)61% (Dec 25, 1:20 PM)29.24 "Hg (Dec 12, 11:50 AM)
Average43 °F89%29.82 "Hg
* Reported Dec 11 1:20 PM — Dec 26 1:20 PM, Oldenburg, Weather by CustomWeather, © 2014

Note: Actual official high and low records may vary slightly from our data, if they occured in-between our weather recording intervals... More about our weather records

Advertising

Oldenburg weather history for previous 24 hours

 ConditionsComfort  
Time TempWeatherWind HumidityBarometerVisibility
1:20 PM
Dec 26
34 °FPassing clouds.3 mph87%30.33 "HgN/A
12:50 PM34 °FSunny.3 mph87%30.36 "Hg10 mi
12:20 PM34 °FSunny.2 mph87%30.36 "Hg10 mi
11:50 AM32 °FSunny.2 mph93%30.36 "Hg10 mi
11:20 AM32 °FSunny.2 mph100%30.36 "Hg10 mi
10:50 AM30 °FSunny.3 mph100%30.36 "Hg10 mi
10:20 AM30 °FSunny.1 mph100%30.36 "Hg10 mi
9:50 AM30 °FSunny.2 mph93%30.36 "Hg10 mi
9:20 AM28 °FSunny.3 mph100%30.36 "Hg10 mi
8:50 AM27 °FSunny.2 mph100%30.36 "Hg10 mi
8:20 AM27 °FClear.2 mph100%30.36 "Hg10 mi
7:50 AM25 °FClear.1 mph100%30.36 "Hg10 mi
7:20 AM28 °FClear.2 mph93%30.33 "Hg10 mi
6:50 AM28 °FClear.2 mph93%30.36 "Hg10 mi
6:20 AM27 °FFog.2 mph100%30.33 "HgN/A
5:50 AM27 °FFog.2 mph100%30.33 "HgN/A
5:20 AM28 °FClear.2 mph100%30.33 "Hg10 mi
4:50 AM30 °FClear.2 mph93%30.33 "Hg10 mi
4:20 AM30 °FClear.3 mph93%30.33 "Hg10 mi
3:20 AM32 °FClear.6 mph87%30.33 "Hg10 mi
2:50 AM30 °FClear.6 mph93%30.33 "Hg10 mi
2:20 AM30 °FClear.5 mph86%30.33 "Hg10 mi
1:50 AM32 °FClear.3 mph87%30.30 "Hg10 mi
1:20 AM32 °FClear.3 mph87%30.30 "Hg10 mi
12:50 AM32 °FPassing clouds.3 mph80%30.30 "HgN/A
12:20 AM34 °FPassing clouds.5 mph75%30.30 "HgN/A
11:20 PM
Dec 25
36 °FPassing clouds.8 mph75%30.30 "HgN/A
10:50 PM36 °FPassing clouds.8 mph75%30.27 "HgN/A
10:20 PM37 °FPassing clouds.6 mph75%30.27 "HgN/A
9:50 PM36 °FPassing clouds.7 mph81%30.27 "HgN/A
9:20 PM37 °FPassing clouds.7 mph75%30.27 "HgN/A
8:50 PM37 °FPassing clouds.6 mph75%30.24 "HgN/A
8:20 PM37 °FPassing clouds.7 mph81%30.24 "HgN/A
7:50 PM37 °FPassing clouds.10 mph81%30.21 "HgN/A
7:20 PM37 °FPassing clouds.10 mph81%30.21 "HgN/A
6:50 PM37 °FPassing clouds.12 mph87%30.18 "HgN/A
6:20 PM37 °FPassing clouds.14 mph87%30.18 "HgN/A
5:50 PM37 °FPassing clouds.17 mph87%30.15 "HgN/A
5:20 PM37 °FPassing clouds.17 mph87%30.15 "HgN/A
4:20 PM39 °FSprinkles. Partly cloudy.20 mph87%30.09 "HgN/A
3:50 PM39 °FSprinkles. Scattered clouds.18 mph87%30.07 "HgN/A
3:20 PM39 °FSprinkles. Scattered clouds.24 mph87%30.07 "HgN/A
2:50 PM43 °FSprinkles. Scattered clouds.24 mph71%30.04 "HgN/A
2:20 PM45 °FScattered clouds.24 mph61%30.04 "HgN/A
Weather by CustomWeather, © 2014

See weather overviewHow to use our weather pages